Weather History for Huntsville, AL

Change the Weather History Date:

Saturday, November 16, 2013

  Actual Average Record
Temperature  
Mean Temperature 60 °F 53 °F  
Max Temperature 67 °F 64 °F 78 °F (1955)
Min Temperature 52 °F 42 °F 14 °F (1940)
Degree Days  
Heating Degree Days 5 13  
Month to date heating degree days 219 164  
Since 1 July heating degree days 350 315  
Cooling Degree Days 0 0  
Month to date cooling degree days 0 7  
Year to date cooling degree days 1833 1947  
Growing Degree Days 8 (Base 50)    
Moisture  
Dew Point 55 °F    
Average Humidity 87    
Maximum Humidity 100    
Minimum Humidity 73    
Precipitation  
Precipitation 0.00 in 0.17 in 2.53 in (1987)
Month to date precipitation 0.66 2.37  
Year to date precipitation 49.30 46.00  
Snow  
Snow 0.00 in - - ()
Month to date snowfall 0.0  
Since 1 July snowfall 0.0  
Since 1 September snowfall 0.0  
Snow Depth 0.00 in    
Sea Level Pressure  
Sea Level Pressure 30.09 in    
Wind  
Wind Speed 10 mph (SE)    
Max Wind Speed 17 mph    
Max Gust Speed 23 mph    
Visibility 7 miles    
Events      
T = Trace of Precipitation, MM = Missing Value Source: NWS Daily Summary

Daily Weather History Graph

Daily Weather History Graph

Search for Another Location

Airport:

Trip Planner

Search our weather history database for the weather conditions in past years. The results will help you decide how hot, cold, wet, or windy it might be!

Date:

Astronomy

Nov. 16, 2013 Rise Set
Actual Time 6:22 AM CST 4:41 PM CST
Civil Twilight 5:55 AM CST 5:08 PM CST
Nautical Twilight 5:24 AM CST 5:38 PM CST
Astronomical Twilight 4:54 AM CST 6:08 PM CST
Moon 4:14 PM CST (11/16) 5:20 AM CST (11/16)
Length of Visible Light 11h 13m
Length of Day
10h 19m
Waxing Gibbous, 99% of the Moon is Illuminated
Nov 16
Waxing Gibbous
Nov 17
Full
Nov 25
Last Quarter
Dec 2
New
Dec 9
First Quarter

Hourly Weather History & Observations

Time (CST) Temp. Dew Point Humidity Pressure Visibility Wind Dir Wind Speed Gust Speed Precip Events Conditions
12:53 AM 52.0 °F 51.1 °F 97% 30.12 in 2.5 mi ESE 5.8 mph - N/A   Overcast
1:42 AM 51.8 °F 51.8 °F 100% 30.11 in 2.5 mi ESE 8.1 mph - N/A   Overcast
1:53 AM 52.0 °F 51.1 °F 97% 30.11 in 2.5 mi ESE 6.9 mph - N/A   Overcast
2:23 AM 51.8 °F 51.8 °F 100% 30.11 in 2.5 mi East 5.8 mph - N/A   Overcast
2:53 AM 52.0 °F 51.1 °F 97% 30.10 in 2.5 mi ESE 5.8 mph - N/A   Overcast
3:48 AM 53.6 °F 51.8 °F 94% 30.12 in 2.5 mi East 5.8 mph - N/A   Overcast
3:53 AM 53.1 °F 51.1 °F 93% 30.12 in 2.5 mi East 5.8 mph - N/A   Overcast
4:53 AM 53.1 °F 52.0 °F 96% 30.12 in 2.5 mi ESE 5.8 mph - N/A   Overcast
5:53 AM 53.1 °F 52.0 °F 96% 30.13 in 3.0 mi ESE 6.9 mph - N/A   Overcast
6:32 AM 53.6 °F 51.8 °F 94% 30.13 in 2.5 mi ESE 8.1 mph - N/A   Overcast
6:53 AM 54.0 °F 52.0 °F 93% 30.13 in 2.5 mi ESE 6.9 mph - N/A   Overcast
7:43 AM 55.4 °F 53.6 °F 94% 30.14 in 3.0 mi ESE 6.9 mph - N/A   Overcast
7:53 AM 55.0 °F 53.1 °F 93% 30.14 in 3.0 mi ESE 6.9 mph - N/A   Overcast
8:53 AM 57.9 °F 54.0 °F 87% 30.14 in 5.0 mi SE 5.8 mph - N/A   Overcast
9:29 AM 60.8 °F 55.4 °F 82% 30.14 in 6.0 mi SE 5.8 mph - N/A   Haze
9:53 AM 62.1 °F 55.9 °F 80% 30.14 in 9.0 mi South 10.4 mph - N/A   Overcast
10:46 AM 62.6 °F 55.4 °F 77% 30.13 in 10.0 mi SSE 13.8 mph - N/A   Overcast
10:53 AM 62.1 °F 55.9 °F 80% 30.13 in 10.0 mi SSE 12.7 mph - N/A   Overcast
11:53 AM 64.0 °F 57.0 °F 78% 30.09 in 10.0 mi SSE 9.2 mph - 0.01 in   Overcast
12:53 PM 66.0 °F 57.0 °F 73% 30.06 in 10.0 mi SSE 11.5 mph - N/A   Overcast
1:53 PM 64.9 °F 57.0 °F 75% 30.04 in 10.0 mi SE 10.4 mph - N/A   Overcast
2:53 PM 66.9 °F 57.9 °F 73% 30.03 in 10.0 mi SSE 13.8 mph - N/A   Overcast
3:53 PM 64.9 °F 57.9 °F 78% 30.04 in 10.0 mi SE 8.1 mph - N/A   Overcast
4:53 PM 64.9 °F 57.9 °F 78% 30.04 in 10.0 mi SE 8.1 mph - N/A   Overcast
5:49 PM 64.4 °F 57.2 °F 77% 30.05 in 10.0 mi SE 11.5 mph - N/A   Overcast
5:53 PM 64.9 °F 57.9 °F 78% 30.04 in 10.0 mi SE 12.7 mph - N/A   Overcast
6:53 PM 64.0 °F 57.0 °F 78% 30.06 in 10.0 mi SE 9.2 mph - N/A   Overcast
7:53 PM 64.0 °F 57.0 °F 78% 30.06 in 10.0 mi SE 12.7 mph - N/A   Overcast
8:53 PM 64.0 °F 57.0 °F 78% 30.06 in 10.0 mi SSE 13.8 mph - N/A   Overcast
9:53 PM 64.0 °F 57.0 °F 78% 30.05 in 10.0 mi SSE 13.8 mph 20.7 mph N/A   Overcast
10:53 PM 64.0 °F 57.0 °F 78% 30.03 in 10.0 mi SSE 17.3 mph - N/A   Overcast
11:53 PM 64.0 °F 57.0 °F 78% 30.02 in 10.0 mi SSE 12.7 mph - N/A   Overcast